Preview of NWS' New Version of Forecast
This preview is not operational and should not be used for support decisions.

Regional Weather Roundup (RWR)

Issued by National Weather Service (NWS)

                            
000
ASUS42 KTBW 171317
RWRFL 
FLORIDA REGIONAL WEATHER ROUNDUP
NATIONAL WEATHER SERVICE TAMPA BAY RUSKIN FL
900 AM EDT TUE SEP 17 2019

NOTE: "FAIR" INDICATES FEW OR NO CLOUDS BELOW 12,000 FEET WITH NO
SIGNIFICANT WEATHER AND/OR OBSTRUCTIONS TO VISIBILITY.

FLZ001>010-012>015-112-114-115-171400-
PANHANDLE FLORIDA
  
CITY           SKY/WX    TMP DP  RH WIND       PRES   REMARKS
PENSACOLA      FAIR      81  74  79 NW9       30.01S                  
PENSACOLA NAS  FAIR      77  76  96 NW6       30.01R                  
MILTON NAS     FAIR      77  72  84 NW6       30.02R                  
CRESTVIEW      FAIR      78  71  79 N5        30.02S                  
DUKE FIELD     FAIR      76  73  90 NW5       30.01R                  
VALPARAISO     FAIR      80  71  73 NW8       30.00S                  
MARY ESTHER    MOSUNNY   79  72  79 N8        29.99S                  
PANAMA CITY    FAIR      78  73  84 NW5       30.00R                  
TYNDALL AFB    FAIR      80  74  82 NW5       29.99R                  
APALACHICOLA   FAIR      78  74  87 CALM      30.00R                  

STATION/POSITION SKY/WX   TEMP    WIND        PRES    WAVE   SWELL
                          AIR SEA DIR/SP/G            HT/PER HT/PER
                          (F)     (DEG/KT/KT) (MB)    (FT/S) (FT/S)
30.1N   87.6W              82 85  360/  8/ 10 1016.4R   1/ 4
29.2N   88.2W              84      80/  4/  4 1016.4R   1/ 5   2/ 5
28.8N   86.0W                 86  350/  8/ 10 1015.9R   1/ 2
PANAMA CITY BEAC           78 86  320/  4/  6 1016.3
TOWER C                    81     340/ 13/ 14 1016.0R
28.5N   84.5W              84     330/ 12/ 14 1016.3R   1/ 3

$$
FLZ011-016>038-118-127-128-134-139-239-171400-
NORTH FLORIDA
  
CITY           SKY/WX    TMP DP  RH WIND       PRES   REMARKS
MARIANNA       FAIR      75  73  93 NW3       29.99R                  
TALLAHASSEE    FAIR      77  73  87 NW5       30.00R                  
PERRY          FAIR      78  71  78 CALM      30.00R                  
LIVE OAK       SUNNY     70  70 100 CALM      29.98S                  
CROSS CITY     FAIR      77  73  86 N6        29.99R                  
LAKE CITY      FAIR      73  68  83 CALM      29.99R                  
GAINESVILLE    FAIR      78  70  76 N3        30.00R                  
WILLISTON      FAIR      76  74  91 N3        29.98S                  
PALATKA        FAIR      75  72  88 NW3       29.98R                  
MAYPORT NAS    PTSUNNY   78  71  79 NW6       29.96R                  
JACKSONVILLE   PTSUNNY   75  70  84 CALM      29.97R                  
JAX NAS        PTSUNNY   77  69  76 VRB3      29.97R                  
JAX CECIL      SUNNY     75  72  88 CALM      29.97R                  
FERNANDINA BEA FAIR      76  73  90 NW5       29.97R                  
ST AUGUSTINE   FAIR      81  32  17 NW5       29.97R                  
PALM COAST     SUNNY     75  72  88 CALM      29.96R                  

STATION/POSITION SKY/WX   TEMP    WIND        PRES    WAVE   SWELL
                          AIR SEA DIR/SP/G            HT/PER HT/PER
                          (F)     (DEG/KT/KT) (MB)    (FT/S) (FT/S)
SHELL POINT      NOT AVBL
KEATON BEACH               81     350/  2/  4 1015.6R
CEDAR KEY                  79     350/  4/  5 1014.9R
FERNANDINA                 81 84  310/  2/  4 1015.3
30.7N   81.3W                 83                N/A     4/10   2/11
MAYPORT                    77 84  310/  5/  6 1014.9
31.4N   80.9W              81 83   10/ 12/ 12 1014.0R   5/10   5/10
ST AUGUSTINE               78 83  310/  4/  5 1014.8R

$$
FLZ040-043>046-052-053-057-058-063-144-171400-
INTERIOR CENTRAL FLORIDA
  
CITY           SKY/WX    TMP DP  RH WIND       PRES   REMARKS
OCALA          FAIR      76  74  93 CALM      29.99R                  
LEESBURG       FAIR      80  73  79 NW6       29.98R                  
SANFORD        FAIR      78  71  79 W5        29.96R                  
ORLANDO EXEC   FAIR      81  70  69 NW8       29.97R                  
ORLANDO INTL   FAIR      81  70  69 W6        29.96S                  
KISSIMMEE      FAIR      80  72  76 NW6       29.98R                  
WINTER HAVEN   FAIR      82  68  62 NW6       29.99R                  
LAKELAND       SUNNY     79  70  73 CALM      30.00R                  
BARTOW         SUNNY     81  70  69 W6        29.98R                  
SEBRING        FAIR      79  73  82 NW6       29.98R                  
OKEECHOBEE       N/A     77  72  83 NW5       29.97R                  

$$
FLZ041-047-054-059-064-141-147-171400-
EAST CENTRAL FLORIDA
  
CITY           SKY/WX    TMP DP  RH WIND       PRES   REMARKS
ORMOND BEACH   SUNNY     68  66  94 CALM      29.96R                  
DAYTONA BEACH  FAIR      78  71  79 NW6       29.96R                  
DELAND         FAIR      79  72  78 NW3       29.96S                  
NEW SMYRNA BEA SUNNY     77  72  83 NW6       29.97R                  
JFK SPACE CTR  SUNNY     78  75  90 NW6       29.95R                  
TITUSVILLE     SUNNY     81  79  94 NW6       29.97R                  
CAPE CANAVERAL FAIR      80  78  95 NW10      29.94R                  
PATRICK AFB    FAIR      80  77  92 NW9       29.95R                  
MELBOURNE      FAIR      79  73  82 NW8       29.95R                  
VERO BEACH     FAIR      80  74  81 NW8       29.95R                  
FT PIERCE      FAIR      78  74  87 W7        29.95R                  
STUART         SUNNY     79  73  83 NW7       29.97R                  

STATION/POSITION SKY/WX   TEMP    WIND        PRES    WAVE   SWELL
                          AIR SEA DIR/SP/G            HT/PER HT/PER
                          (F)     (DEG/KT/KT) (MB)    (FT/S) (FT/S)
28.5N   80.2W              83 84  330/ 14/ 17 1014.4R  10/11   8/11
28.9N   78.5W              82 81  330/ 12/ 16 1012.2R  12/11  11/11
TRIDENT PIER               78 83  290/  8/ 10 1015.7R
28.4N   80.5W                 83                N/A     4/11   2/11
27.5N   80.2W                 83                N/A     7/11   5/11

$$
FLZ050-056-061-142-242-148-248-149-249-151-251-155-255-
160-260-171400-
WEST CENTRAL FLORIDA
  
CITY           SKY/WX    TMP DP  RH WIND       PRES   REMARKS
CRYSTAL RIVER  FAIR      79  75  89 N5        29.98S                  
INVERNESS      FAIR      79  79 100 N5        29.99R FOG              
BROOKSVILLE    FAIR      80  76  87 CALM      29.99R                  
CLEARWATER AIR FAIR      81  75  83 CALM      29.98R                  
ST PETE CLEARW FAIR      84  75  74 W3        29.98R                  
TAMPA INTL     FAIR      83  75  77 CALM      29.99R                  
TAMPA EXEC     FAIR      79  77  94 CALM      29.99R                  
PLANT CITY     FAIR      81  73  78 CALM      30.01R                  
MACDILL AFB    FAIR      84  75  73 NW5       29.98R                  
PETER O KNIGHT PTSUNNY   82  81  94 NW3       29.99R HX  95           
ST PETERSBURG  FAIR      84  73  69 NW3       29.97R                  
SARASOTA       FAIR      85  75  72 SW5       29.96R                  
VENICE         FAIR      84  77  79 CALM      29.99R                  

STATION/POSITION SKY/WX   TEMP    WIND        PRES    WAVE   SWELL
                          AIR SEA DIR/SP/G            HT/PER HT/PER
                          (F)     (DEG/KT/KT) (MB)    (FT/S) (FT/S)
27.3N   84.2W                 84                N/A     1/ 3
CLEARWATER BEACH           84 86  360/  1/  3 1015.2
MIDDLE TAMPA BAY           84     320/  5/  5 1015.2R
VENICE                     85 86  300/  4/  4 1015.3R

$$
FLZ066-069-070-075>078-162-262-165-265-171400-
SOUTHWEST FLORIDA AND KEYS
  
CITY           SKY/WX    TMP DP  RH WIND       PRES   REMARKS
PUNTA GORDA    FAIR      81  77  88 NW3       29.99R                  
FT MYERS       FAIR      82  72  71 CALM      29.97R                  
SOUTHWEST INTL FAIR      81  75  82 CALM      29.97R                  
NAPLES         FAIR      85  74  69 N3        29.97R                  
MARCO ISLAND   FAIR      82  72  71 NE5       29.98R                  
IMMOKALEE      FAIR      81  75  83 CALM      29.95S                  
MARATHON       FAIR      86  76  71 N8        29.95R HX  96           
KEY WEST NAS   FAIR      87  77  72 N8        29.96R HX  99           
KEY WEST INTL  FAIR      87  77  72 N7        29.96R HX  99           

STATION/POSITION SKY/WX   TEMP    WIND        PRES    WAVE   SWELL
                          AIR SEA DIR/SP/G            HT/PER HT/PER
                          (F)     (DEG/KT/KT) (MB)    (FT/S) (FT/S)
NAPLES                     81 86   20/  3/  4 1014.7R
26.0N   85.6W              85 87  330/  6/  8 1015.9R   1/ 5   2/ 5
DRY TORTUGAS               85      10/ 10/ 11 1015.0R
SAND KEY                   84     350/ 10/ 12 1013.4R
SOMBRERO KEY               83     360/  5/  8 1014.6R
LONG KEY                   84                 1013.2R

$$
FLZ067-068-071>074-168-172>174-171400-
SOUTHEAST FLORIDA 
  
CITY           SKY/WX    TMP DP  RH WIND       PRES   REMARKS
W PALM BEACH   FAIR      80  75  84 NW8       29.96R                  
BOCA RATON     SUNNY     82  75  78 NW8       29.95R                  
FT LAUDER-EXEC FAIR      81  75  82 NW6       29.95R                  
FT LAUDERDALE  FAIR      81  75  82 NW5       29.94R                  
POMPANO BEACH  FAIR      82  74  76 NW7       29.95R                  
PEMBROKE PINES FAIR      83  74  74 NW6       29.97R                  
OPA LOCKA      FAIR      83  75  77 NW7       29.96R                  
MIAMI          FAIR      83  73  72 NW7       29.96R                  
WEST KENDALL   FAIR      83  76  79 NW7       29.95R                  
HOMESTEAD      SUNNY     82  75  79 N7        29.94S                  

STATION/POSITION SKY/WX   TEMP    WIND        PRES    WAVE   SWELL
                          AIR SEA DIR/SP/G            HT/PER HT/PER
                          (F)     (DEG/KT/KT) (MB)    (FT/S) (FT/S)
VIRGINIA KEY               83 87  310/  3/  6 1013.8
LAKE WORTH                 78 85  290/  7/  9 1015.3R
FOWEY ROCKS                81 85  330/  7/  8 1014.5R
SETTLEME